Dewpoint
59 59 59 59 59 59 59 59 59 59 59 58 58 58 58 58 58 58 58 58 58 58 58 58 58 58 58 58 58 58 58 58 58 59 59 60 61 61 61 62 62 62 62 63 64 64 65 64 62 61 61 60 60 61 61 63 65 65 66 66 67 68 69 70 70 70 70 70 70 70 70 70 70 70 70 70 70 70 69 68 68 67 67 67 67 68 68 68 69 69 70 70 71 72 72 72 72 72 71 71 71 71 71
59 59 59 59 59 59 59 59 59 59 59 59 59 59 59 59 58 58 58 58 58 58 58 58 58 58 58 58 57 57 57 57 58 58 59 60 60 61 61 61 61 62 62 63 63 64 64 61 61 61 60 59 59 59 59 60 61 63 65 65 66 68 69 70 70 70 70 70 70 70 70 70 70 70 70 70 70 69 69 68 67 67 66 66 66 66 67 67 67 68 68 69 70 71 72 72 72 72 72 72 72 71 71
59 59 59 59 59 59 59 59 59 59 59 59 59 59 59 59 59 58 58 58 58 58 58 58 58 58 58 57 57 57 57 57 58 58 59 60 60 61 61 61 61 61 62 62 63 63 63 61 60 59 59 58 58 58 58 58 59 60 62 64 65 66 68 69 70 70 69 69 69 69 69 69 69 69 69 69 69 69 69 68 67 66 66 65 65 66 66 67 67 67 67 68 69 70 71 71 71 72 72 72 72 72 72
58 59 59 59 59 59 59 59 59 59 60 60 59 59 59 59 59 59 59 58 58 58 58 58 58 58 57 57 57 57 57 57 58 58 59 59 60 61 61 61 61 61 61 62 63 62 60 59 59 58 58 58 58 58 58 58 59 59 59 61 63 65 66 67 68 68 68 68 68 68 68 68 68 68 68 68 67 67 67 67 67 66 66 65 65 65 66 66 66 66 67 67 68 69 70 70 70 71 71 71 71 71 71
58 58 59 59 59 59 59 59 59 59 59 59 59 59 59 59 58 58 58 58 58 58 58 58 57 57 57 57 57 57 57 57 58 58 59 59 60 60 61 61 61 61 61 61 62 62 57 58 57 57 57 57 57 57 57 58 58 59 59 60 61 63 65 65 66 66 66 67 67 67 66 66 66 66 67 66 66 66 66 66 66 66 66 66 66 66 66 67 67 66 66 67 67 68 68 69 70 70 70 70 71 71 71
58 58 58 58 58 58 59 59 59 59 59 59 59 59 58 58 58 58 58 58 57 57 57 57 57 57 57 57 57 57 57 57 58 58 59 59 60 60 60 60 60 61 61 61 62 62 59 56 55 55 56 56 56 56 56 57 57 58 58 59 60 62 64 64 65 65 65 65 65 65 65 65 65 65 66 66 66 66 66 66 66 67 67 67 66 66 67 67 67 67 66 67 67 68 68 68 69 69 70 70 70 70 70
58 58 58 58 58 58 58 58 58 58 58 58 58 58 58 58 58 58 58 57 57 57 57 57 57 57 57 57 57 57 57 57 58 58 58 59 59 60 60 60 60 60 60 61 62 61 59 55 54 55 55 55 56 56 56 56 57 57 57 59 61 62 63 63 64 64 65 65 65 65 65 65 65 65 65 65 65 65 65 66 66 66 66 66 66 66 67 67 67 67 67 67 68 68 68 68 68 68 69 69 69 69 70
58 58 57 57 57 57 57 57 57 57 57 57 57 57 57 57 57 57 57 56 56 56 56 56 57 57 57 57 57 57 57 57 57 58 58 59 59 59 59 59 59 60 60 60 61 61 60 56 55 55 55 56 56 56 56 56 56 56 57 58 60 61 62 62 63 63 63 64 64 64 64 64 64 64 64 64 64 65 65 65 65 65 65 65 66 66 66 66 67 67 67 67 67 67 67 67 67 68 68 68 68 69 69
57 57 57 57 57 57 57 57 57 57 57 57 57 57 57 56 56 56 56 56 56 56 56 56 56 56 57 57 57 57 57 57 57 58 58 58 58 59 59 59 59 59 59 60 61 61 60 56 55 55 55 56 56 56 56 56 56 56 57 58 59 60 61 61 61 62 62 63 63 63 63 62 62 63 63 63 63 64 64 64 64 65 65 65 65 65 65 66 66 66 66 67 67 67 67 67 67 67 67 67 67 68 68
57 57 57 57 57 57 57 57 57 57 56 56 56 56 56 56 56 55 55 55 54 54 54 55 55 55 56 56 56 57 57 57 57 57 57 58 58 58 58 58 58 58 58 59 60 60 60 56 54 54 54 55 55 56 56 56 56 56 56 58 59 60 61 61 61 61 61 61 62 62 62 62 61 61 62 62 62 63 63 63 63 64 64 64 64 64 65 65 65 65 65 66 66 66 66 67 67 67 67 67 67 67 67
57 57 57 57 57 57 57 56 56 56 56 56 56 56 56 55 55 54 54 54 53 53 53 53 53 54 55 55 56 56 56 56 57 57 57 57 57 57 57 57 57 57 57 58 59 59 58 55 53 53 53 53 54 55 55 55 56 56 56 58 59 60 61 61 61 61 61 61 61 61 61 61 61 61 61 61 61 61 62 62 62 63 63 63 63 63 64 64 64 64 65 65 65 65 66 66 66 66 66 66 66 66 67
57 56 56 56 56 56 56 56 56 56 56 56 56 55 55 55 54 54 53 53 52 52 52 52 52 52 53 54 55 55 56 56 56 56 57 57 57 57 57 57 56 56 56 56 57 57 56 53 52 52 52 52 52 53 54 55 55 56 56 58 60 60 60 60 61 61 61 61 61 61 61 61 61 61 60 60 61 61 61 61 61 62 62 62 62 62 63 63 63 63 63 64 64 65 65 65 65 66 66 66 66 66 66
56 56 56 56 56 56 56 56 56 56 56 55 55 55 55 54 54 54 53 53 52 52 52 51 51 51 51 52 53 54 54 55 55 56 56 56 56 56 56 56 56 56 56 56 55 55 53 51 50 50 50 50 51 52 53 54 55 56 57 59 60 60 60 60 61 61 61 60 60 60 61 60 60 60 60 60 60 60 60 60 61 61 61 61 61 61 62 62 62 62 62 63 63 63 64 64 65 65 65 65 65 65 65
56 56 56 56 56 55 55 55 55 55 55 55 54 54 54 54 53 53 53 52 52 52 51 51 50 50 49 50 50 51 52 53 54 54 55 55 56 55 55 55 55 55 55 54 53 52 51 49 48 48 48 49 50 51 54 54 55 57 59 60 60 60 60 60 61 61 60 60 60 60 60 60 60 60 60 59 59 59 59 59 60 60 60 61 61 61 61 61 61 61 61 62 62 62 63 63 64 64 64 65 65 65 65
56 55 55 55 55 55 55 54 54 54 54 53 53 53 53 53 52 52 52 52 52 51 51 50 49 49 48 47 48 48 50 51 52 52 53 54 54 54 54 54 54 54 54 52 50 50 49 48 47 47 47 47 48 50 52 54 56 57 60 60 60 60 60 60 60 60 60 60 60 60 60 60 60 59 59 59 59 59 59 59 59 59 60 60 60 61 61 61 61 61 61 61 61 61 62 62 62 63 63 63 64 64 64
56 55 55 54 54 54 54 53 53 53 53 52 52 52 52 52 52 52 51 51 51 51 50 50 49 48 47 47 46 47 47 48 50 51 52 52 52 52 52 52 52 52 52 50 49 49 48 47 46 46 46 46 47 48 51 53 56 58 60 60 60 60 60 60 60 60 60 60 60 60 60 59 59 59 59 59 59 58 58 58 58 59 59 59 60 60 60 60 60 60 61 61 61 61 61 61 61 62 62 62 62 63 63
55 55 53 53 52 52 52 52 52 52 52 51 51 51 51 51 51 51 50 50 50 50 49 49 48 47 47 46 46 45 43 45 46 47 49 50 51 51 51 51 51 50 49 49 49 49 48 47 46 45 45 45 46 47 50 53 56 59 60 60 60 60 60 60 60 60 60 60 59 59 59 59 59 59 59 59 58 58 58 58 58 58 58 59 59 59 60 60 60 60 60 60 60 60 61 61 61 61 61 61 61 62 62
53 52 52 52 51 51 51 51 50 50 50 50 50 50 50 50 50 50 49 49 49 48 48 48 47 47 47 47 46 43 38 39 40 42 46 47 49 49 49 49 48 47 47 48 48 48 48 47 45 44 44 44 45 47 49 52 56 58 59 59 60 60 60 60 60 60 60 59 59 59 59 58 58 58 58 58 58 58 58 58 58 58 58 58 58 59 59 59 59 59 59 60 60 60 60 60 60 60 60 61 61 61 61
52 51 51 50 50 50 49 49 49 49 49 49 49 49 49 49 49 49 48 48 48 47 47 47 47 47 47 47 44 42 39 38 38 38 41 43 46 47 47 46 45 45 47 47 47 47 47 47 46 44 43 44 45 46 48 52 55 57 58 59 59 59 59 59 59 59 59 59 59 59 58 58 58 58 58 58 58 58 58 58 58 57 57 58 58 58 58 58 59 59 59 59 59 59 59 59 59 59 60 60 60 60 60
50 50 49 49 49 48 48 48 48 48 48 47 48 48 48 48 48 48 47 47 47 46 46 46 46 46 46 43 42 40 40 39 38 38 39 40 42 43 44 44 44 44 45 46 46 46 46 46 45 44 43 43 44 46 47 51 54 56 57 57 58 58 58 59 59 59 59 59 58 58 58 57 57 57 57 57 57 57 57 57 57 57 57 57 57 57 58 58 58 58 58 58 58 58 58 58 58 58 58 59 59 59 59
46 46 47 48 48 47 47 47 47 47 47 47 46 45 44 46 47 47 47 47 46 46 46 45 43 41 41 40 39 39 40 39 38 38 39 39 40 42 43 44 45 44 43 43 44 45 45 45 44 44 43 43 44 45 47 50 53 55 56 56 57 57 57 58 58 58 58 58 58 57 57 57 56 56 56 56 56 57 57 57 57 57 57 56 57 57 57 57 57 57 57 57 57 57 57 57 57 57 58 58 58 58 58
43 43 44 45 45 45 44 44 44 45 46 47 44 41 40 42 43 44 45 43 43 43 43 41 39 37 37 37 37 38 39 39 39 38 38 38 40 42 43 45 46 45 43 41 42 43 45 44 44 43 43 42 43 45 47 50 52 53 54 55 56 56 56 56 57 57 57 57 57 57 56 56 56 56 56 56 56 56 56 56 56 56 56 56 56 56 56 56 56 56 56 56 56 56 56 56 57 57 57 57 57 57 57
43 42 43 42 43 43 43 43 43 43 43 45 43 41 40 39 40 40 41 38 38 38 38 37 36 35 34 34 35 36 37 39 40 39 38 38 39 41 42 44 46 46 45 41 40 41 43 43 43 43 43 42 43 44 47 50 51 52 52 53 54 55 55 56 56 56 56 56 56 56 56 56 56 55 55 55 55 55 55 56 56 56 56 56 56 56 56 56 56 56 56 56 56 56 56 56 56 56 56 56 56 56 56
43 42 42 42 42 43 43 42 42 42 42 43 42 41 40 39 38 38 38 38 37 36 36 35 35 34 34 33 34 34 36 38 40 40 38 37 38 39 40 42 43 45 46 44 42 40 41 43 43 43 43 41 42 44 47 49 49 50 51 52 52 53 54 54 55 55 55 55 55 55 55 55 55 55 55 54 54 54 55 55 55 55 55 55 55 55 55 55 56 56 56 56 56 56 56 56 56 56 56 56 56 56 56
43 42 41 42 42 42 43 42 41 42 42 42 41 41 39 38 38 38 38 39 38 37 35 35 34 34 33 33 33 34 34 36 38 38 38 37 36 37 39 40 41 43 45 45 44 42 41 42 43 43 42 40 41 43 47 48 49 49 49 50 51 52 53 53 53 54 54 54 54 54 54 54 54 54 54 54 54 54 54 55 55 55 55 55 55 55 55 55 55 55 55 55 55 55 55 55 55 55 55 55 55 55 55
42 41 41 41 41 42 43 42 41 41 41 42 42 41 38 38 38 39 39 39 39 38 37 35 34 34 33 33 33 33 34 34 35 36 37 37 36 35 37 38 40 41 43 45 45 45 44 43 42 43 43 41 40 41 44 47 48 48 48 49 50 51 52 52 52 52 53 53 53 53 53 53 53 53 53 53 53 54 54 54 54 55 55 55 55 54 54 54 54 54 55 54 55 55 54 55 55 55 55 55 55 55 55
43 42 42 42 42 42 42 42 41 41 41 42 42 42 39 38 38 39 39 40 39 38 37 35 34 34 34 34 34 34 34 33 34 34 35 37 36 35 34 37 38 39 41 43 45 46 46 45 43 42 41 42 40 39 41 45 47 47 47 47 48 49 50 51 51 52 52 52 52 52 52 52 52 53 53 53 53 53 53 54 54 54 54 54 54 54 54 54 54 54 54 54 54 54 54 54 54 54 54 54 54 54 54
43 43 43 42 42 42 41 42 41 41 41 42 42 41 40 38 38 39 40 40 39 38 38 37 36 36 36 36 35 34 34 34 34 34 34 36 36 35 34 34 37 38 39 41 43 44 46 47 46 43 39 39 38 38 39 42 45 46 46 46 47 48 49 49 50 51 51 51 51 51 52 52 52 52 52 52 53 53 53 53 53 54 54 54 54 53 53 53 53 54 54 54 54 54 54 54 54 54 54 54 54 54 54
43 43 43 42 42 42 41 41 41 41 41 41 41 41 41 39 39 39 40 40 39 39 39 38 38 38 37 37 37 36 35 35 34 34 34 36 35 34 33 31 34 37 38 39 40 41 43 45 46 45 44 42 39 38 38 41 43 45 45 45 46 46 47 47 48 49 50 50 50 51 51 51 51 52 52 52 52 52 52 52 53 53 53 53 53 53 53 53 53 53 53 53 53 53 54 54 54 54 54 54 54 54 54
43 43 43 42 42 42 42 41 41 41 41 41 41 40 41 41 40 40 41 41 40 40 38 38 37 37 36 36 36 37 39 38 36 34 33 34 33 32 30 28 29 32 35 36 37 37 39 41 43 44 44 44 42 39 38 40 43 44 43 44 44 45 45 46 47 47 48 49 49 50 50 51 51 51 52 52 52 52 52 52 52 52 52 52 52 52 52 52 53 53 53 53 53 53 53 53 53 53 53 53 54 54 54
43 43 43 43 43 42 42 43 42 41 41 41 41 41 41 41 41 42 42 42 41 40 38 38 38 37 37 37 37 37 38 38 37 34 33 32 32 31 30 27 27 28 30 33 34 35 35 37 38 40 42 45 41 36 37 38 40 42 43 43 43 43 44 44 45 45 46 47 48 49 50 50 50 51 51 52 52 52 52 52 52 52 52 52 52 52 52 52 52 52 53 53 53 53 53 53 53 53 53 53 53 53 53
43 43 43 43 42 42 42 42 42 41 41 41 41 42 43 43 43 43 43 43 43 42 42 41 41 40 39 38 38 38 39 38 37 35 33 33 32 31 30 28 27 28 29 31 33 34 34 36 38 40 41 43 40 38 38 37 38 39 43 43 43 43 43 43 43 44 44 46 47 48 49 49 50 50 51 51 51 51 51 51 51 52 52 52 52 52 52 52 52 52 52 53 53 53 53 52 52 52 52 53 53 53 53
43 42 43 43 43 42 41 41 41 41 42 42 43 43 44 44 44 44 43 43 43 43 42 42 42 41 40 39 39 39 40 38 37 35 34 33 32 31 30 28 27 28 29 31 32 32 33 34 36 37 37 38 38 38 39 38 38 38 42 43 42 42 42 42 42 43 43 44 45 46 47 48 49 49 50 50 50 51 51 51 51 51 52 52 52 52 51 52 52 52 52 52 52 52 52 52 52 52 52 52 53 53 53
43 43 44 44 43 42 42 41 41 41 42 43 44 45 45 45 45 45 44 44 43 43 42 42 42 42 41 41 40 40 40 39 38 37 34 34 33 32 30 30 29 28 28 30 31 32 32 32 33 34 35 36 36 37 38 39 39 39 39 41 42 42 41 41 41 42 42 43 43 44 46 47 48 48 49 49 49 50 50 51 51 51 51 52 52 52 51 51 52 52 52 52 52 52 52 52 52 52 52 52 52 52 53
43 44 44 43 43 43 43 42 41 42 43 44 46 46 46 46 46 46 45 45 44 43 42 41 41 41 41 41 40 40 39 38 37 36 33 32 32 32 31 31 31 30 28 29 30 32 33 32 31 32 34 35 37 38 40 39 39 39 39 41 42 42 40 40 40 40 41 41 42 43 44 46 47 47 47 48 48 48 49 50 50 51 51 51 52 51 51 51 52 52 52 52 52 52 52 52 52 52 52 52 52 52 52
44 43 43 43 43 43 43 43 42 42 43 44 46 47 47 47 47 46 45 44 43 43 43 42 41 41 40 40 39 39 39 38 38 38 35 33 32 31 31 30 31 31 29 29 29 31 32 32 32 31 31 34 37 40 42 43 41 39 37 39 40 41 40 39 39 40 40 40 41 42 43 44 45 46 46 47 47 47 48 49 49 50 51 51 51 51 51 51 52 52 52 52 52 52 52 52 52 52 52 52 52 52 52
43 43 42 43 43 43 43 42 43 43 43 44 46 47 47 46 45 44 43 43 42 42 42 42 42 42 42 41 40 40 41 40 40 39 39 37 35 34 31 30 30 30 30 30 31 31 30 31 31 31 30 33 36 39 42 43 43 39 34 34 35 36 36 35 37 39 41 40 40 41 42 43 44 44 45 45 45 46 47 47 48 49 50 51 51 51 51 51 51 52 52 52 52 52 52 52 51 52 52 52 52 52 52
43 42 42 42 43 42 42 43 43 44 43 44 44 45 45 43 43 43 43 43 43 43 42 42 43 43 42 41 41 41 41 40 39 39 40 39 38 37 34 32 30 30 29 31 32 32 29 31 31 31 30 31 34 37 39 43 43 40 31 30 31 31 32 31 32 34 39 40 40 40 40 42 43 43 43 44 44 45 46 46 47 48 49 50 50 50 50 50 51 52 52 52 52 52 52 51 51 51 52 52 52 52 52
43 42 41 43 43 42 42 43 43 44 43 43 43 42 42 41 42 43 44 44 44 44 45 43 43 42 42 42 42 42 42 40 40 40 40 41 40 39 36 34 33 32 31 31 32 32 30 30 30 30 29 29 31 34 36 38 41 39 31 29 29 30 30 29 30 31 33 37 39 40 39 40 41 42 42 43 43 43 44 45 46 47 48 49 49 49 49 50 51 51 52 52 52 52 51 51 51 51 52 52 52 52 52
43 42 41 43 43 43 43 43 43 43 43 42 41 41 41 41 42 42 43 43 43 44 45 45 44 42 41 42 42 42 41 41 41 42 42 42 42 41 39 36 35 34 33 33 33 33 33 30 29 29 29 30 30 30 31 32 34 34 30 29 29 29 30 31 31 31 31 32 35 38 40 39 40 40 41 41 42 42 43 43 44 45 46 47 48 48 48 49 50 50 51 51 51 51 51 51 51 51 51 51 51 52 52
43 42 42 43 43 43 43 43 43 42 41 40 40 41 42 41 41 42 43 42 42 43 43 44 43 43 41 41 41 41 42 42 42 42 42 42 43 42 41 38 36 35 34 34 34 34 34 32 30 28 29 31 31 30 29 30 31 30 29 28 29 30 32 34 33 32 30 30 32 34 39 39 39 39 39 40 40 41 41 42 43 43 44 46 47 47 47 48 49 49 50 50 51 51 51 51 51 51 51 51 51 51 51
43 43 42 43 43 44 44 43 43 41 40 39 40 40 41 41 41 42 43 41 41 41 42 43 43 43 42 41 41 41 41 41 42 42 42 42 42 43 42 39 38 36 35 34 34 34 34 33 32 30 30 31 31 31 31 32 32 31 30 28 29 31 33 34 33 31 29 29 29 31 34 38 38 38 38 38 38 39 40 40 41 42 43 44 45 46 46 47 47 48 49 50 50 50 50 50 50 50 51 50 51 51 51
43 43 43 43 44 44 45 44 43 41 39 39 39 40 40 40 40 41 43 42 40 40 40 41 42 42 42 41 40 40 41 40 40 41 41 40 41 42 42 40 38 36 35 34 33 33 33 33 32 32 33 31 31 32 33 33 33 33 32 30 30 31 32 31 31 30 30 29 29 29 31 35 38 38 37 37 37 38 38 39 40 41 42 43 43 44 44 45 46 47 48 49 49 49 49 49 50 50 50 50 50 50 51
44 44 44 44 44 45 45 45 44 43 40 40 39 39 40 39 39 40 41 42 40 39 39 39 40 41 41 40 39 38 39 39 39 39 39 38 38 38 40 40 38 36 36 34 33 32 31 31 31 32 34 32 30 30 33 34 34 34 34 33 32 31 31 30 30 30 30 29 29 29 30 31 34 37 38 38 38 38 38 38 38 39 40 41 42 43 43 43 45 46 47 47 48 48 48 49 49 49 50 50 50 50 50
44 45 45 45 45 45 45 45 44 43 42 41 40 39 39 38 38 38 38 40 39 38 38 38 39 39 40 39 38 37 37 37 38 38 38 38 37 37 39 39 38 37 35 34 33 32 31 31 31 32 34 32 30 29 30 34 35 35 36 34 33 32 31 30 29 28 27 28 29 30 31 30 31 32 34 36 36 35 36 37 38 38 39 40 41 41 42 42 43 44 46 47 47 47 47 48 48 49 49 50 50 50 50
44 44 44 45 46 46 45 45 44 44 43 42 40 39 38 38 38 37 37 37 38 37 37 38 38 39 39 39 38 37 36 36 37 38 39 39 39 39 40 40 39 37 36 34 34 32 31 31 31 32 32 31 29 29 29 34 36 36 35 34 33 32 31 29 28 25 24 27 29 30 31 30 29 28 29 31 31 31 34 36 36 37 38 39 39 40 41 41 41 43 44 45 46 46 46 47 47 48 49 50 50 50 50
44 43 43 45 46 46 46 46 45 45 44 42 41 39 38 38 37 36 36 36 36 36 37 38 38 38 39 39 38 37 36 36 36 36 37 38 40 41 43 41 39 38 37 35 34 33 31 31 31 32 30 29 29 27 28 31 32 32 32 33 33 33 31 29 27 25 24 26 27 28 30 28 26 26 29 29 30 29 30 34 35 37 37 38 38 39 39 40 40 41 42 43 44 44 45 46 47 48 49 49 50 50 50
43 43 43 44 46 46 46 46 46 45 44 43 41 40 38 38 37 37 36 36 35 36 38 39 38 38 38 38 38 37 36 36 36 36 36 37 38 41 43 41 39 38 38 37 36 34 34 32 31 31 30 29 27 26 26 27 28 27 27 28 29 29 30 28 26 25 25 25 25 25 27 26 25 25 26 28 29 29 29 31 34 36 37 37 37 37 38 38 38 39 40 42 42 43 43 45 46 47 48 49 49 50 50
44 43 42 44 45 46 46 46 46 45 44 43 42 41 41 40 39 39 39 38 38 38 40 40 38 37 37 37 37 37 36 36 36 37 37 36 36 36 38 39 39 38 38 38 37 36 35 34 34 33 31 29 28 28 27 27 26 26 25 25 24 23 23 25 25 25 25 24 24 25 25 25 25 25 25 27 28 29 30 31 31 33 36 37 37 37 37 37 38 38 38 40 41 41 42 43 44 46 47 48 49 49 50
43 43 42 43 44 45 45 46 46 45 44 43 43 42 43 43 43 42 43 41 41 40 39 39 38 38 36 36 37 37 37 36 37 38 38 36 34 32 32 34 37 38 38 38 38 37 36 36 36 36 33 31 29 29 27 26 26 25 26 25 24 24 22 23 24 25 25 24 25 25 26 26 26 26 27 27 27 28 29 30 30 31 33 34 35 36 37 37 37 37 37 38 39 40 40 42 43 45 46 47 48 49 49
43 42 41 41 43 44 44 45 45 44 44 44 44 43 43 44 45 44 43 42 42 40 38 38 38 38 38 36 37 38 38 38 38 38 36 34 34 32 32 33 34 37 38 38 38 38 38 37 38 38 38 35 33 29 27 27 26 25 27 27 26 25 24 24 24 24 24 24 25 26 27 26 26 26 27 27 27 27 27 29 29 30 32 31 31 32 34 35 36 36 36 37 38 38 39 40 42 43 45 46 47 48 49
43 41 41 40 41 43 43 45 45 44 45 44 43 43 44 45 45 44 43 43 42 41 38 37 37 38 38 37 38 39 38 38 38 38 35 34 34 34 34 34 34 34 34 35 36 37 36 37 38 38 39 37 34 32 29 28 27 27 27 28 27 26 25 25 25 25 23 23 23 24 25 25 25 26 27 27 27 27 27 28 29 30 31 31 32 33 33 34 35 37 35 36 36 37 37 38 40 42 44 45 47 47 48
42 41 41 40 40 41 43 44 44 44 44 43 42 42 43 44 45 44 44 43 43 41 40 39 38 38 37 38 38 39 39 39 39 39 38 35 35 35 37 36 34 32 31 31 32 33 30 31 33 36 38 38 36 33 31 30 30 29 29 27 27 28 27 27 26 26 25 23 23 23 25 25 26 26 28 28 28 28 28 28 29 29 30 30 31 32 33 34 35 37 36 35 35 36 36 37 39 41 43 44 46 47 47
41 41 41 40 40 40 41 43 43 43 43 42 41 41 43 44 44 44 43 43 43 42 40 41 40 39 36 36 37 38 39 38 39 39 39 38 36 35 34 34 34 33 33 31 30 29 28 30 32 34 37 38 36 34 33 33 33 32 31 29 29 30 29 29 28 27 25 24 24 25 25 26 27 28 28 28 29 29 29 29 29 29 29 30 31 31 31 32 35 38 38 38 36 34 34 36 38 40 42 43 45 46 47
41 40 40 40 40 40 40 42 43 43 43 42 41 41 42 43 44 44 43 43 43 42 40 41 41 39 36 36 37 38 38 38 37 38 38 39 38 37 35 34 34 34 33 31 30 29 29 30 30 31 34 35 34 33 33 33 34 34 34 33 31 31 32 31 30 29 27 27 27 27 25 26 27 27 28 28 29 29 29 30 29 29 29 30 31 31 31 33 34 35 35 36 36 35 33 36 38 39 41 43 44 45 46
40 40 39 39 39 39 39 40 41 42 42 41 40 40 40 42 43 43 43 43 43 42 41 40 40 40 38 37 37 38 38 38 37 37 38 38 39 40 40 37 34 32 31 31 31 31 31 31 30 30 32 32 31 31 32 33 34 34 35 34 33 32 32 31 30 29 29 29 29 29 29 28 27 27 27 28 28 29 29 30 30 29 29 30 31 31 30 30 30 31 32 33 34 35 34 36 37 39 41 42 43 44 45
41 39 39 38 39 39 39 40 40 41 41 41 40 39 39 41 42 43 43 43 43 42 41 40 40 40 40 38 38 38 38 37 38 38 38 38 39 41 42 40 38 35 34 32 31 31 32 32 30 29 30 32 32 32 31 32 33 34 35 34 34 33 33 32 30 30 30 30 30 30 30 29 28 27 26 27 28 29 29 30 30 30 31 31 31 31 31 31 31 31 31 32 32 33 36 36 37 39 41 42 43 44 45
42 40 39 38 39 39 39 39 40 40 41 41 40 39 38 39 40 42 43 42 42 42 42 41 40 39 39 39 39 39 38 37 37 37 38 38 39 40 41 41 40 39 38 36 34 32 31 31 30 29 29 31 33 34 33 31 32 33 34 33 33 33 33 32 31 30 31 31 30 30 30 29 28 26 26 26 27 28 28 29 29 30 31 30 30 30 31 31 33 33 32 33 33 34 35 36 38 39 40 42 43 43 44
42 41 39 39 39 39 40 39 39 39 40 40 40 39 38 38 39 40 42 42 42 42 42 41 40 40 40 39 39 38 38 38 37 36 37 37 38 38 40 40 38 37 37 36 35 34 33 31 31 30 30 29 30 32 34 33 32 32 32 32 32 32 32 32 31 31 31 32 31 31 30 29 28 27 27 27 28 29 28 28 29 30 29 29 30 30 30 33 34 34 36 37 37 37 34 36 37 38 40 41 42 43 44
43 42 40 39 39 39 39 39 40 39 39 40 40 38 37 37 37 38 40 41 42 43 43 41 40 40 40 39 38 37 37 38 37 37 36 36 36 37 38 37 36 35 36 34 33 32 33 32 31 31 30 29 29 29 29 32 33 33 32 31 31 31 31 30 31 32 32 33 33 32 30 30 29 29 29 28 28 29 29 29 29 29 29 30 29 29 29 30 30 31 33 35 37 36 34 35 37 38 40 41 42 43 44
43 43 41 40 39 39 39 39 39 39 39 40 40 38 37 37 37 37 38 41 43 43 43 41 41 40 40 39 38 37 37 37 38 38 37 36 36 37 38 36 35 35 36 33 31 30 30 31 32 32 31 30 29 28 28 29 30 31 31 31 31 31 31 30 31 32 32 32 32 31 30 30 29 30 29 29 29 29 29 29 29 30 30 30 29 29 29 29 29 29 29 32 34 36 34 35 37 38 39 40 42 43 43